Regional Weather Roundup
Issued by NWS

Home | Current Version | Previous Version | Text Only | Print | Product List | Glossary On
Versions: 1 2 3 4 5 6 7 8 9 10 11 12 13 14 15 16 17 18 19 20 21 22 23 24 25 26 27 28 29 30 31 32 33 34 35 36 37 38 39 40 41 42 43 44 45 46 47 48 49 50
000
ASUS45 KBOI 202010
RWRID
WEATHER ROUNDUP FOR IDAHO
NATIONAL WEATHER SERVICE BOISE ID
100 PM MST SAT DEC 20 2014

NOTE: "FAIR" INDICATES FEW OR NO CLOUDS BELOW 12000 FEET
WITH NO SIGNIFICANT WEATHER AND/OR OBSTRUCTIONS TO VISIBILITY

IDZ012-014-202100-
SOUTHWEST IDAHO


CITY           SKY/WX    TMP DP  RH WIND       PRES   REMARKS
BOISE          CLOUDY    44  37  76 E13       29.96F
CALDWELL       CLOUDY    45  36  70 NE14      29.97F
MOUNTAIN HOME  CLOUDY    42  39  88 E16       29.98F
$$

IDZ016-017-202100-
SOUTHCENTRAL IDAHO


CITY           SKY/WX    TMP DP  RH WIND       PRES   REMARKS
BURLEY         CLOUDY    42  36  79 SW10      30.00F
JEROME         LGT RAIN  40  36  86 SE6       30.01F
TWIN FALLS     CLOUDY    45  35  68 S14       29.99F
$$

IDZ019>023-202100-
SOUTHEAST IDAHO


CITY           SKY/WX    TMP DP  RH WIND       PRES   REMARKS
IDAHO FALLS    CLOUDY    36  34  92 SW15      30.00F WCI  27
POCATELLO      LGT RAIN  40  36  86 S14       30.02F WCI  32
REXBURG        LGT SNOW  33  33 100 SW10      29.99F FOG     WCI  25
$$

IDZ006-010-011-018-031-032-202100-
CENTRAL IDAHO MOUNTAINS


CITY           SKY/WX    TMP DP  RH WIND       PRES   REMARKS
MCCALL         CLOUDY    32  31  96 SE10      29.88F WCI  24
HAILEY         LGT SNOW  30  30 100 CALM      30.00F
STANLEY          N/A     34  27  75 SE6       29.91F WCI  29
SALMON         CLOUDY    30  28  93 N3        29.91F
CHALLIS        CLOUDY    31  25  78 CALM      29.92F
$$

IDZ002-004-006-007-026-202100-
NORTHERN IDAHO


CITY           SKY/WX    TMP DP  RH WIND       PRES   REMARKS
LEWISTON       LGT RAIN  44  39  82 NE3       29.82F
LOWELL           N/A     43  37  79 VRB3      29.89F
COEUR D`ALENE  CLOUDY    37  36  93 N3        29.79F
MULLAN PASS    SNOW      30  26  85 VRB3      29.73F VSB 1/4
$$


USA.gov is the U.S. government's official web portal to all federal, state and local government web resources and services.